Regional Weather Roundup
Issued by NWS San Diego, CA

Home | Current Version | Previous Version | Text Only | Print | Product List | Glossary On
Versions: 1 2 3 4 5 6 7 8 9 10 11 12 13 14 15 16 17 18 19 20 21 22 23 24 25 26 27 28 29 30 31 32 33 34 35 36 37 38 39 40 41 42 43 44 45 46 47 48 49 50
000
ASUS46 KSGX 230804
RWRSGX

SAN DIEGO HOURLY WEATHER ROUNDUP
NATIONAL WEATHER SERVICE SAN DIEGO CA
100 AM PDT SUN APR 23 2017

NOTE: "FAIR" INDICATES FEW OR NO CLOUDS BELOW 12,000 FEET WITH NO
SIGNIFICANT WEATHER AND/OR OBSTRUCTIONS TO VISIBILITY.

CAZ042-043-060-061-PZZ750-775-230900-

GREATER SAN DIEGO AREA

CITY           SKY/WX    TMP DP  RH WIND       PRES   REMARKS
SAN DIEGO AP   PTCLDY    65  58  78 S3        29.87S
NATIONAL CITY    N/A     64  61  88 S2        29.86S
CHULA VISTA      N/A     62  61  94 CALM      29.78S
IMPERIAL BEACH CLEAR     61  58  90 SW8       29.87S FOG
BROWN FIELD    CLEAR     59  57  93 CALM      29.86S
MIRAMAR MCAS   CLEAR     59  51  75 CALM      29.86S
MONTGOMERY FLD CLEAR     64  58  80 SW5       29.87R

$$

NORTH SAN DIEGO COUNTY

CITY           SKY/WX    TMP DP  RH WIND       PRES   REMARKS
CAMP PENDLETON CLEAR     53  52  96 CALM      29.87R FOG
OCEANSIDE AP   CLEAR     55  54  96 CALM      29.86R
OCEANSIDE HBR    N/A     59  57  92 CALM      29.89R
VISTA            N/A     58  53  84 CALM      29.83S
CARLSBAD       PTCLDY    64  61  90 W6        29.86R
DEL MAR          N/A     62  61  96 CALM      29.89R
LA JOLLA SCRIP   N/A     63  61  93 SW1       29.86R
FALLBROOK        N/A     61  55  82 CALM      29.84S
ESCONDIDO        N/A     64  54  69 CALM      29.86R
SAN MARCOS       N/A     61  53  75 CALM      29.87R
POWAY            N/A     57  51  78 CALM      29.86S

$$

EAST SAN DIEGO COUNTY

CITY           SKY/WX    TMP DP  RH WIND       PRES   REMARKS
RAMONA         CLEAR     53  48  83 CALM      29.88F
SANTEE LAKES     N/A     58  53  84 CALM      29.84S
LA MESA          N/A     63  58  83 CALM      29.78S
JAMUL            N/A     56  50  79 CALM      29.84F
DESCANSO N       N/A     52  33  48 NE7       29.80F
MT. LAGUNA OBS   N/A     56  20  24 W5        29.66F
CAMPO            N/A     47  35  63 NE8       29.91F

$$

ORANGE COUNTY AND THE LOS ANGELES BASIN

CITY           SKY/WX    TMP DP  RH WIND       PRES   REMARKS
JOHN WAYNE AP  CLEAR     64  56  75 SW5       29.86S
LAKE FOREST FR   N/A     60  45  58 CALM      29.73S
HUNTINGTON BCH   N/A     62  60  93 CALM      29.88R
LOS ALAMITOS   FAIR      61  55  81 S5        29.86R
FULLERTON      CLEAR     64  56  75 VRB3      29.86R
LONG BEACH     PTCLDY    62  54  74 E3        29.86S
L.A. AP        MOCLDY    62  57  83 SW7       29.85R
L.A. DOWNTOWN  MOCLDY    65  52  62 SE3       29.85R

$$

THE INLAND EMPIRE

CITY           SKY/WX    TMP DP  RH WIND       PRES   REMARKS
CORONA         PTCLDY    63  52  67 W9        29.86S
CHINO          PTCLDY    62  50  64 W5        29.87S
ONTARIO        PTCLDY    65  42  43 W3        29.86S
SAN BERNARDINO FAIR      67  42  40 CALM      29.88S
RIVERSIDE AP   PTCLDY    66  44  45 CALM      29.86S
MORENO VALLEY    N/A     65  43  44 CALM        N/A
MARCH ARB      PTCLDY    56  39  53 W5        29.88S
HORSETHIEF CYN   N/A     64  31  29 CALM      29.84S
PERRIS           N/A     68  48  47 CALM      29.87S
HEMET EAST       N/A     66  26  22 CALM      29.88S
FRENCH VALLEY  FAIR      61  43  51 CALM      29.89R
TEMECULA         N/A     63  49  61 CALM      29.93S

$$

SAN BERNARDINO AND RIVERSIDE COUNTY MOUNTAINS

CITY           SKY/WX    TMP DP  RH WIND       PRES   REMARKS
BIG BEAR AP    PTCLDY    37  27  65 CALM      30.11F
ANGELUS OAKS     N/A     50  30  45 CALM      29.78F
PINE COVE        N/A     55  24  30 CALM      29.82F

$$

SOUTHERN DESERT INCLUDING THE COACHELLA VALLEY

CITY           SKY/WX    TMP DP  RH WIND       PRES   REMARKS
PALM SPRINGS   CLEAR     78  35  21 CALM      29.78S
PALM DESERT      N/A     75  44  32 CALM        N/A
THERMAL        CLEAR     68  37  32 W3        29.71F
BLYTHE         CLEAR     73  33  23 CALM      29.76S
IMPERIAL AP    CLEAR     74  37  26 W9        29.74F
EL CENTRO NAS  CLEAR     77  25  14 W7        29.76F
YUMA AZ        CLEAR     77  35  21 W3        29.75F
MEXICALI       CLEAR     75  30  19 NW6       29.76

$$

UPPER DESERT

CITY           SKY/WX    TMP DP  RH WIND       PRES   REMARKS
VICTORVILLE AP MOCLDY    64  30  27 CALM      29.91S
HESPERIA         N/A     68  32  26 W3        29.92F
PALMDALE       LGT RAIN  68  43  40 NW17      29.90S
LANCASTER      MOCLDY    64  46  52 W18       29.90S
EDWARDS AFB    CLOUDY    67  38  34 W13       29.86F
DAGGETT        MOCLDY    70  31  23 W13       29.84F
29 PALMS N     CLEAR     68  30  24 N5        29.90F
NEEDLES        CLEAR     73  22  14 SW6       29.78F

$$

REGIONAL REPORTS

CITY           SKY/WX    TMP DP  RH WIND       PRES   REMARKS
SANTA BARBARA  PTCLDY    60  55  83 VRB5      29.82S
SANDBERG       PTCLDY    54  43  66 NW21      30.01F
LAS VEGAS NV   CLOUDY    70  24  17 SW5       29.82F
PHOENIX AZ     CLEAR     76  31  19 E5        29.79S
TIJUANA        CLEAR     63  52  67 CALM      29.88F
ENSENADA NW      N/A     61  32  33 CALM      29.83F

$$

OFFSHORE ISLANDS

CITY           SKY/WX    TMP DP  RH WIND       PRES   REMARKS
CATALINA ARPT  PTCLDY    65  40  39 SE5       29.90S

$$

MARINE AND OFFSHORE BUOY REPORTS

STATION/POSITION SKY/WX   TEMP    WIND        PRES    VSBY  SWELL
                          AIR SEA DIR/SP/G                  HT/PER/DIR
                          (F)     (DEG/KT/KT) (MB)    (MI)  (FT/S/D)
TANNER BANKS               59 58  310/ 19/ 21 1012.7          3/240/16
S CLEMENTE BASIN           61 63  270/ 14/ 16 1011.4          5/290/ 7
SAN NICOLAS IS.               56                N/A           3/190/17
SO. S. ROSA ISLA           56 56  310/ 21/ 25 1012.2          3/240/16
W. S. BARBARA CH           54 53  320/ 19/ 21 1012.5          3/250/16
M. S. BARBARA CH                  250/ 17/ 21 1010.8F
S. MONICA BASIN            60 60  180/  4/  4 1010.5S         5/200/16
S PEDRO CHANNEL               62                N/A           2/190/17
CMP PENDLETON NS              62                N/A           2/210/15
OCEANSIDE OFFSHR              64                N/A           2/200/15
TORREY PINES OTR              65                N/A           3/210/17
POINT LOMA SOUTH              65                N/A           3/200/15

$$





USA.gov is the U.S. government's official web portal to all federal, state and local government web resources and services.